Regional Weather Roundup
Issued by NWS Cleveland, OH

Home | Current Version | Previous Version | Graphics & Text | Print | Product List | Glossary On
Versions: 1 2 3 4 5 6 7 8 9 10 11 12 13 14 15 16 17 18 19 20 21 22 23 24 25 26 27 28 29 30 31 32 33 34 35 36 37 38 39 40 41 42 43 44 45 46 47 48 49 50
000
ASUS41 KCLE 261610
RWRCLE
OHIO REGIONAL WEATHER ROUNDUP
NATIONAL WEATHER SERVICE WILMINGTON, OH
1200 PM EDT FRI MAY 26 2017

NOTE: "FAIR" INDICATES FEW OR NO CLOUDS BELOW 12,000 FEET WITH NO
SIGNIFICANT WEATHER AND/OR OBSTRUCTIONS TO VISIBILITY.

OHZ001>008-015>018-024>027-034-035-043-044-261700-
   NORTHWEST OHIO

CITY           SKY/WX    TMP DP  RH WIND       PRES   REMARKS
DEFIANCE       CLOUDY    61  53  75 VRB7      29.90R
FINDLAY        CLOUDY    63  52  67 W10       29.88S
TOLEDO EXPRESS PTSUNNY   66  54  65 NW5       29.87S
TOLEDO EXEC    CLOUDY    63  53  70 W9        29.88R
LIMA           PTSUNNY   61  55  81 W5        29.91R
$$

OHZ009>014-019>023-028>033-038-089-261700-
   NORTHEAST OHIO

CITY           SKY/WX    TMP DP  RH WIND       PRES   REMARKS
CLE-HOPKINS    CLOUDY    65  52  62 NW13G20   29.87R
CLE-LAKEFRONT  CLOUDY    60  53  77 W15       29.85R
CUY CO. ARPT   CLOUDY    59  52  77 NW16      29.86R
LORAIN-ELYRIA  CLOUDY    59  49  69 NW16      29.88R
ASHTABULA      CLOUDY    55  54  96 W12       29.84R FOG
AKRON-CANTON   LGT RAIN  59  54  83 NW12      29.86R
WOOSTER        CLOUDY    59  53  80 W12       29.88R
MANSFIELD      CLOUDY    58  54  86 W6        29.89R
YOUNGSTOWN     CLOUDY    60  52  74 W13G20    29.83R
$$

OHZ042-051>053-060>062-070>072-077>081-261700-
  SOUTHWEST OHIO

CITY           SKY/WX    TMP DP  RH WIND       PRES   REMARKS
CINC-COVINGTON PTSUNNY   71  58  63 W12       29.94R
CINC-LUNKEN    FAIR      73  58  59 W5        29.94R
HAMILTON       FAIR      71  61  70 SW6       29.94S
DAYTON         PTSUNNY   69  55  60 W12       29.93R
WRIGHT-PAT AFB PTSUNNY   70  57  63 W13       29.91R
DAYTON GENERAL FAIR      70  55  59 W8        29.92R
WILMINGTON     FAIR      69  58  67 W14       29.93R
$$

OHZ036-037-039>041-045>050-054>059-063>069-073>076-082>088-261700-
  CENTRAL AND SOUTHEAST OHIO

CITY           SKY/WX    TMP DP  RH WIND       PRES   REMARKS
COLUMBUS       PTSUNNY   70  56  61 NW17      29.88S
OSU AIRPORT    FAIR      69  56  62 NW13      29.89R
BOLTON FIELD   MOSUNNY   68  55  64 W14G22    29.90S
RICKENBACK AFB FAIR      69  55  60 W15G22    29.90S
NEWARK         PTSUNNY   68  55  63 NW12      29.88R
MARION         CLOUDY    61  53  75 W9        29.90R
LANCASTER      FAIR      71  55  56 W9        29.90S
ZANESVILLE     PTSUNNY   66  54  65 NW9       29.89R
NEW PHILLY     CLOUDY    61  55  81 NW7       29.88R
$$




USA.gov is the U.S. government's official web portal to all federal, state and local government web resources and services.